User: anonymous   Login
Location: Caltech
(34.1382°N, 118.1253°W)
Time: 18:01:34
(UTC-07:00)
Language:

Cosmos 1484 Rocket - Orbit

View from above orbital plane
View from above orbital plane
View from above satellite
View from above satellite

Ground track
Ground track

The orbit data is extracted from the following two-line orbital elements,

1 14208U 83075B   16205.19781091  .00000665  00000-0  44018-4 0  9996
2 14208  97.3536 223.1384 0039712 183.4300 176.6664 15.09996327797857
Epoch (UTC): 23 July 2016 04:44:50
Eccentricity: 0.0039712
inclination: 97.3536°
perigee height: 509 km
apogee height: 563 km
right ascension of ascending node: 223.1384°
argument of perigee: 183.4300°
revolutions per day: 15.09996327
mean anomaly at epoch: 176.6664°
orbit number at epoch: 79785

The dashed part of the orbit path shows where the satellite is in the earth's shadow,  

DLR